Location: Newark
(3.0500°N, 36.0167°E)
Time: 21:47:15
(UTC+00:00)

A-11 Canister half - Pass Details

Date: 31 August 2019
Orbit: 1527 x 1682 km, 47.3° (Epoch: 22 October)

Event Time Altitude Azimuth Distance (km) Brightness Sun altitude
Rises 15:58:11 0° 315° (NW) 4,917 12.6 -4.9°
Reaches altitude 10° 16:01:22 10° 313° (NW) 3,921 12.1 -5.7°
Maximum altitude 16:11:22 71° 231° (SW) 1,721 9.4 -8.2°
Drops below altitude 10° 16:21:06 10° 148° (SSE) 3,822 10.7 -10.6°
Sets 16:24:12 0° 146° (SE) 4,788 11.2 -11.4°
